This demonstration page uses our WeatherBlox Daily Observations layout. Learn more.

Left ArrowRight Arrow

Hourly Observations for December 1, 2018

Temp ( °F °C ) Dew Point ( °F °C ) Humidity (%) Winds ( mph kmh ) Pressure ( in mb ) Visibility ( mi km ) Precip ( " mm )
6:30 am 06:30 Cloudy with Light Rain 45 7 41 5 87 87 E 15 24 29.77 1008 5 8 N/A
6:45 am 06:45 Cloudy with Light Rain 45 7 41 5 87 87 E 17 28 29.74 1007 5 8 N/A
7:45 am 07:45 Cloudy with Light Rain 46 8 43 6 87 87 ESE 16 26 29.77 1008 7 11 N/A
8:45 am 08:45 Cloudy with Light Rain 46 8 45 7 93 93 ESE 14 22 29.74 1007 5 8 N/A
9:45 am 09:45 Cloudy with Light Rain 48 9 45 7 87 87 SE 9 15 29.74 1007 5 8 N/A
10:45 am 10:45 Cloudy 50 10 46 8 88 88 SE 9 15 29.71 1006 10 16 N/A
11:45 am 11:45 Cloudy 54 12 50 10 88 88 SE 17 28 29.65 1004 10 16 N/A
12:45 pm 12:45 Cloudy 54 12 48 9 82 82 S 14 22 29.65 1004 10 16 N/A
1:45 pm 13:45 Cloudy 54 12 50 10 88 88 SSE 18 30 29.56 1001 10 16 N/A
2:54 pm 14:54 Cloudy with Light Rain 54 12 50 10 88 88 SSW 14 22 29.59 1002 7 11 N/A
3:02 pm 15:02 Cloudy with Light Rain 54 12 50 10 88 88 SSW 10 17 29.56 1001 2 3 N/A
3:24 pm 15:24 Mostly Cloudy 54 12 50 10 88 88 SE 13 20 29.56 1001 10 16 N/A
3:48 pm 15:48 Mostly Cloudy 54 12 50 10 88 88 SE 15 24 29.56 1001 10 16 N/A
4:04 pm 16:04 Cloudy 54 12 50 10 88 88 SE 12 19 29.56 1001 10 16 N/A
4:35 pm 16:35 Cloudy 54 12 50 10 88 88 SE 13 20 29.53 1000 10 16 N/A
4:48 pm 16:48 Cloudy 54 12 50 10 88 88 SE 12 19 29.53 1000 10 16 N/A
5:47 pm 17:47 Cloudy 54 12 50 10 88 88 SE 13 20 29.50 999 10 16 N/A
6:45 pm 18:45 Cloudy with Light Rain 55 13 52 11 88 88 SSE 14 22 29.50 999 5 8 N/A
7:10 pm 19:10 Cloudy with Light Rain 55 13 52 11 88 88 SSE 9 15 29.50 999 5 8 N/A
7:47 pm 19:47 Cloudy 55 13 52 11 88 88 SSE 14 22 29.50 999 10 16 N/A
8:05 pm 20:05 Cloudy 55 13 52 11 88 88 SSE 13 20 29.44 997 10 16 N/A
8:46 pm 20:46 Cloudy 55 13 52 11 88 88 S 12 19 29.44 997 10 16 N/A
9:45 pm 21:45 Cloudy 55 13 52 11 88 88 S 9 15 29.44 997 10 16 N/A

Powered by AerisWeather